This is the latest recevied weather packets stored in our database for station/object IU1OLT-6. If no packets are shown the sender has not sent any weather packets the latest 10 day(s).
| Time | Temp. | Humidity | Pressure | Rain* | Wind** | Luminosity | Snow |
|---|---|---|---|---|---|---|---|
| 1788648702 | 18.33° C | 59% | 1018 hPa | 0 mm | - | - | - |
| 1788647742 | 18.89° C | 59% | 1018.1 hPa | 0 mm | - | - | - |
| 1788646783 | 18.89° C | 61% | 1017.9 hPa | 0 mm | - | - | - |
| 1788645822 | 18.89° C | 60% | 1017.9 hPa | 0 mm | - | - | - |
| 1788644862 | 18.89° C | 59% | 1017.8 hPa | 0 mm | - | - | - |
| 1788643902 | 18.89° C | 58% | 1017.7 hPa | 0 mm | - | - | - |
| 1788642954 | 18.89° C | 60% | 1017.7 hPa | 0 mm | - | - | - |
| 1788641983 | 18.89° C | 60% | 1017.6 hPa | 0 mm | - | - | - |
| 1788641023 | 18.89° C | 60% | 1017.7 hPa | 0 mm | - | - | - |
| 1788640063 | 19.44° C | 51% | 1017.6 hPa | 0 mm | - | - | - |
| 1788639103 | 18.89° C | 54% | 1017.5 hPa | 0 mm | - | - | - |
| 1788638143 | 18.89° C | 50% | 1017.3 hPa | 0 mm | - | - | - |
| 1788637183 | 18.89° C | 48% | 1017.3 hPa | 0 mm | - | - | - |
| 1788636270 | 18.89° C | 67% | 1017.1 hPa | 0 mm | - | - | - |
| 1788635359 | 19.44° C | 67% | 1016.9 hPa | 0 mm | - | - | - |
| 1788634399 | 19.44° C | 67% | 1016.8 hPa | 0 mm | - | - | - |
| 1788633439 | 19.44° C | 70% | 1016.6 hPa | 0 mm | - | - | - |
| 1788632479 | 19.44° C | 70% | 1016.5 hPa | 0 mm | - | - | - |
| 1788631566 | 19.44° C | 69% | 1016.3 hPa | 0 mm | - | - | - |
| 1788630559 | 20° C | 69% | 1016.3 hPa | 0 mm | - | - | - |
| 1788629646 | 19.44° C | 69% | 1016.2 hPa | 0 mm | - | - | - |
| 1788628735 | 21.67° C | 63% | 1016 hPa | 0 mm | - | - | - |
| 1788627802 | 22.22° C | 66% | 1016 hPa | 0 mm | - | - | - |
| 1788626815 | 22.78° C | 63% | 1015.9 hPa | 0 mm | - | - | - |
| 1788625903 | 22.78° C | 68% | 1015.9 hPa | 0 mm | - | - | - |
* Rain latest hour (hover to see other rain measurements)
** Current wind speed in m/s (hover to see current wind gust speed)